Regional Weather Roundup
Issued by NWS Charleston, SC

Current Version | Previous Version | Graphics & Text | Print | Product List | Glossary On
Versions: 1 2 3 4 5 6 7 8 9 10 11 12 13 14 15 16 17 18 19 20 21 22 23 24 25 26 27 28 29 30 31 32 33 34 35 36 37 38 39 40 41 42 43 44 45 46 47 48 49 50
000
ASUS42 KCHS 212012
RWRCHS

Regional Weather Roundup
National Weather Service Charleston SC
400 PM EDT SAT APR 21 2018

NOTE: "fair" indicates few or no clouds below 12,000 feet with no
significant weather and/or obstructions to visibility.

Not all stations are quality controlled. Use data with caution,
especially dewpoint observations.

SCZ027-030-031-034>040-042>050-212100-
...Southeast South Carolina...

CITY           SKY/WX    TMP DP  RH WIND       PRES   REMARKS
N Charleston   FAIR      71  50  47 E16       30.32F
Waterfront Prk NOT AVBL
Mount Pleasant FAIR      66  52  59 NE7       30.34S
Johns Island   CLOUDY    66  52  59 E17G24    30.32F
Pinopolis        N/A     70  48  46 E5        30.24F
Moncks Corner  FAIR      66  45  45 SE6       30.32S
Summerville    FAIR      70  46  43 E3        30.32F
Beaufort MCAS  FAIR      70  54  56 E9        30.31F
Beaufort Arpt  FAIR      66  52  59 E17G24    30.31S
Hilton Head Is MOSUNNY   66  54  63 E13G22    30.32F
Walterboro     MOCLDY    70  50  49 SE8       30.32F
Allendale      FAIR      72  50  46 SE9G16    30.28F

...Southern Midlands and Pee Dee...

CITY           SKY/WX    TMP DP  RH WIND       PRES   REMARKS
Georgetown     FAIR      66  43  42 E14       30.36F
Kingstree      FAIR      70  41  35 E6        30.32S
Orangeburg     FAIR      72  44  36 CALM      30.30F
Barnwell       MOCLDY    73  46  38 E7G14     30.29F
Aiken          MOCLDY    72  32  23 SE12      30.33F
Manning        FAIR      68  41  37 S7        30.31F
Columbia       FAIR      73  33  23 SE6       30.30F
Sumter         FAIR      71  32  23 E6        30.29F
Florence       FAIR      72  31  22 S8        30.32F
Myrtle Beach   FAIR      65  48  54 SE14      30.36F
N Myrtle Beach FAIR      64  46  52 SE10G18   30.35F

$$

GAZ063-065-086>088-099>101-113>116-118-119-134>141-150-212100-
...Southeast Georgia...

CITY           SKY/WX    TMP DP  RH WIND       PRES   REMARKS
Savannah Arpt  PTSUNNY   71  54  54 E15       30.29F
Hunter AAF     CLOUDY    69  54  58 E20       30.27F
Fort Stewart   CLOUDY    69  55  60 E13       30.26F
Statesboro     CLOUDY    71  49  46 SE7       30.28F
Sylvania       FAIR      72  57  60 SE8       30.30F
Claxton        CLOUDY    72  56  58 E10       30.28S

...CSRA, Central and far Southeast Georgia...

CITY           SKY/WX    TMP DP  RH WIND       PRES   REMARKS
Thomson        FAIR      71  34  25 S7        30.33F
Augusta-Bush   PTSUNNY   74  35  24 E7        30.28F
Augusta-Daniel PTSUNNY   73  33  23 E8        30.29F
Swainsboro     CLOUDY    72  52  49 E7        30.27F
Vidalia        CLOUDY    72  57  60 E9        30.26F
Eastman        CLOUDY    72  38  28 E6        30.28F
Hazlehurst     CLOUDY    71  56  59 SE8       30.24F
Alma           CLOUDY    64  61  90 E6        30.26F FOG
Waycross       DRIZZLE   64  61  91 E8        30.26F
Jesup          CLOUDY    66  57  72 CALM      30.27
Baxley         CLOUDY    64  57  77 E9        30.26F
Brunswick      CLOUDY    64  59  82 NE9G16    30.26F
Saint Simons   CLOUDY    68  62  81 NE12      30.25F

$$

SCZ027-028-034-036>038-045-046-048>050-GAZ119-141-212100-
...Lake and Supplemental Coastal Observations...

STATION/POSITION TIME  TEMP    WIND        PRES    WAVE   SWELL
                       AIR SEA DIR/SP/G            HT/PER HT/PER/DIR
                 (UTC) (F)     (DEG/KT/KT) (MB)    (FT/S) (FT/S/D)
Winyah Bay       1845   61      80/ 14     1028.0
Lake Murray      1920   68     100/  5/  7 1026.1F
ACE Basin NERRS  1845   69     350/  5       N/A
Fort Pulaski     1948   64 64   70/ 18/ 23 1026.3F
Sapelo Island    1900   67      50/  7     1025.0

$$

ANZ835-935-AMZ111-154-330-350-352-354-370-450-454-472-212100-
...C-MAN and Buoy Observations...

STATION/POSITION TIME  TEMP    WIND        PRES    WAVE   SWELL
                       AIR SEA DIR/SP/G            HT/PER HT/PER/DIR
                 (UTC) (F)     (DEG/KT/KT) (MB)    (FT/S) (FT/S/D)
Buoy 41004       1950   66 67   80/ 16/ 17 1026.4F   5/ 6   2/110/ 8
Buoy 41008       1950   66 65   70/ 14/ 16 1024.3F   5/ 8   3/110/ 8
Folly Beach CMAN 2000   63      50/ 19/ 22 1027.4F
Capers Nearshore 1908   62 63   60/ 17/ 21 1027.5F
Fripp Nearshore  1908   63 63   70/ 16/ 23 1026.0F


STATION/POSITION TIME  TEMP    WIND        PRES    WAVE   SWELL
                       AIR SEA DIR/SP/G            HT/PER HT/PER/DIR
                 (UTC) (F)     (DEG/KT/KT) (MB)    (FT/S) (FT/S/D)
5E St. Marys GA  1930      66                N/A     5/ 7   2/ 90/11
Frying Pan Buoy  1950   62 67   60/ 16/ 19 1027.7F   5/ 5   2/ 80/ 8
Buoy 41025       1950   56 71   30/ 12/ 16 1029.2F   4/ 8   3/ 60/ 8
Cape Lookout NC  1900           70/ 14/ 15 1029.6F
Buoy 41002       1950   65 73   50/ 12/ 16 1026.1F   4/ 8   3/ 60/ 8
Buoy 41010       1950   72 76   70/ 19/ 25 1022.7F   8/ 7   2/ 60/15
St Augustine FL  2000   70 67  100/ 14/ 16 1022.9F


$$



USA.gov is the U.S. government's official web portal to all federal, state and local government web resources and services.